Location: Lafig�re
(44.4503°N, 4.0357°E)
Time: 16:15:32
(UTC+00:00)

CZ-4 R/B - Pass Details

Date: 24 September 2020
Orbit: 530 x 600 km, 97.7° (Epoch: 26 October)

Event Time Altitude Azimuth Distance (km) Brightness Sun altitude
Rises 18:45:20 0° 184° (S) 2,833 4.9 -13.0°
Reaches altitude 10° 18:47:37 10° 193° (SSW) 1,933 4.1 -13.4°
Maximum altitude 18:51:33 39° 262° (W) 905 3.0 -14.1°
Drops below altitude 10° 18:55:29 10° 332° (NNW) 1,926 4.7 -14.7°
Sets 18:57:46 0° 340° (NNW) 2,822 5.4 -15.1°
